Flag for U.S.A. Weather past 2 weeks in Columbia, South Carolina, U.S.A.

Now
27 °F

Sunny.


Feels Like: 27 °F
Forecast: 27 / 51 °F
Wind: No wind

Location: Columbia Owens Downtown Airport

Current Time: Jan 31, 2015 at 8:49:56 AM

Latest Report: Jan 31, 2015 at 7:53 AM


Visibility: 10 mi

Pressure: 30.39 "Hg

Humidity: 78%

Dew point: 21 °F

Location of ColumbiaLocation

Historic Weather in Columbia — Graph

°F

Columbia temperature yesterday

Maximum temperature yesterday: 54 °F (at 2:53 PM)
Minimum temperature yesterday: 37 °F (at 11:53 PM)
Average temperature yesterday: 49 °F

Past Weeks' High & Low Weather Summary

 TemperatureHumidityPressure
High69 °F (Jan 19, 2:53 PM)93% (Jan 23, 5:53 PM)30.39 "Hg (Jan 23, 5:53 PM)
Low27 °F (Jan 31, 6:53 AM)15% (Jan 19, 2:53 PM)29.62 "Hg (Jan 24, 4:53 AM)
Average47 °F60%30.05 "Hg
* Reported Jan 16 8:00 AM — Jan 31 7:53 AM, Columbia, Weather by CustomWeather, © 2014

Note: Actual official high and low records may vary slightly from our data, if they occured in-between our weather recording intervals... More about our weather records

Advertising

Columbia weather history for previous 24 hours

 ConditionsComfort  
Time TempWeatherWind HumidityBarometerVisibility
7:53 AM
Jan 31
27 °FSunny.No wind78%30.39 "Hg10 mi
6:53 AM27 °FClear.No wind72%30.38 "Hg10 mi
5:53 AM28 °FClear.No wind69%30.36 "Hg10 mi
4:53 AM28 °FClear.No wind69%30.35 "Hg10 mi
3:53 AM29 °FClear.No wind72%30.35 "Hg10 mi
2:53 AM30 °FClear.No wind69%30.35 "Hg10 mi
1:53 AM31 °FClear.No wind69%30.33 "Hg10 mi
12:53 AM33 °FClear.No wind63%30.32 "Hg10 mi
11:53 PM
Jan 30
37 °FClear.No wind46%30.32 "Hg10 mi
10:53 PM40 °FClear.6 mph41%30.32 "Hg10 mi
9:53 PM42 °FClear.5 mph41%30.30 "Hg10 mi
8:53 PM44 °FClear.3 mph38%30.29 "Hg10 mi
7:53 PM46 °FClear.5 mph34%30.27 "Hg10 mi
6:53 PM48 °FClear.No wind29%30.26 "Hg10 mi
5:53 PM50 °FClear.5 mph25%30.23 "Hg10 mi
4:53 PM53 °FSunny.10 mph22%30.19 "Hg10 mi
3:53 PM54 °FSunny.12 mph21%30.18 "Hg10 mi
2:53 PM54 °FSunny.9 mph24%30.18 "Hg10 mi
1:53 PM52 °FSunny.6 mph30%30.18 "Hg10 mi
12:53 PM53 °FSunny.12 mph31%30.19 "Hg10 mi
11:53 AM52 °FSunny.14 mph35%30.21 "Hg10 mi
10:53 AM50 °FSunny.10 mph39%30.20 "Hg10 mi
9:53 AM48 °FSunny.8 mph44%30.18 "Hg10 mi
8:53 AM47 °FSunny.8 mph50%30.16 "Hg10 mi
Weather by CustomWeather, © 2014

See weather overviewHow to use our weather pages